Moab, UT

10:22 PM MDT on April 25, 2018 (GMT -0600)
Canyonlands

Weather History for KCNY - July, 2012

Change the Weather History Date:

Saturday, July 14, 2012

  Actual Average Record
Temperature  
Mean Temperature 75 °F 81 °F  
Max Temperature 87 °F 96 °F 109 °F (1939)
Min Temperature 63 °F 66 °F 50 °F (1932)
Degree Days  
Heating Degree Days 0 0  
Month to date heating degree days 0 0  
Since 1 June heating degree days 2 17  
Since 1 July heating degree days 0 0  
Cooling Degree Days 10 16  
Month to date cooling degree days 242 203  
Year to date cooling degree days 704 522  
Since 1 June cooling degree days 620 458  
Growing Degree Days 23 (Base 50)    
Moisture  
Dew Point 60 °F    
Average Humidity 62    
Maximum Humidity 87    
Minimum Humidity 37    
Precipitation  
Precipitation 0.20 in 0.02 in 0.26 in (2001)
Month to date precipitation 0.24 0.33  
Year to date precipitation 0.89 4.03  
Sea Level Pressure  
Sea Level Pressure 29.98 in    
Wind  
Wind Speed 6 mph (WNW)    
Max Wind Speed 51 mph    
Max Gust Speed 60 mph    
Visibility 10 miles    
Events Rain , Thunderstorm    
T = Trace of Precipitation, MM = Missing Value Source: NWS Daily Summary

Daily Weather History Graph

Daily Weather History Graph

Search for Another Location

Airport or City:

Astronomy

Jul. 14, 2012 Rise Set
Actual Time 6:06 AM MDT 8:43 PM MDT
Civil Twilight 5:35 AM MDT 9:14 PM MDT
Nautical Twilight 4:56 AM MDT 9:53 PM MDT
Astronomical Twilight 4:12 AM MDT 10:36 PM MDT
Moon 2:22 AM MDT (7/14) 5:10 PM MDT (7/14)
Length of Visible Light 15h 39m
Length of Day
14h 37m
Waning Crescent, 18% of the Moon is Illuminated
Jul 14
Waning Crescent
Jul 18
New
Jul 26
First Quarter
Aug 1
Full
Aug 9
Last Quarter

Hourly Weather History & Observations

Time (MDT) Temp. Heat Index Dew Point Humidity Pressure Visibility Wind Dir Wind Speed Gust Speed Precip Events Conditions
12:53 AM 70.0 °F - 62.1 °F 76% 29.92 in 10.0 mi ESE 4.6 mph - N/A   Overcast
1:53 AM 66.9 °F - 60.1 °F 79% 29.93 in 10.0 mi Calm Calm - N/A   Clear
2:53 AM 66.2 °F - 60.8 °F 83% 30.11 in 10.0 mi NW 8.1 mph - N/A   Clear
3:53 AM 64.4 °F - 60.8 °F 88% 30.11 in 10.0 mi West 3.5 mph - N/A   Scattered Clouds
4:53 AM 66.9 °F - 57.9 °F 73% 29.92 in 10.0 mi NW 10.4 mph - N/A   Clear
5:53 AM 66.9 °F - 59.0 °F 76% 29.94 in 10.0 mi NW 8.1 mph - N/A   Scattered Clouds
6:53 AM 66.9 °F - 60.1 °F 79% 29.95 in 10.0 mi Calm Calm - N/A   Partly Cloudy
7:53 AM 70.0 °F - 60.1 °F 71% 29.97 in 10.0 mi Calm Calm - N/A   Clear
8:53 AM 72.0 °F - 57.9 °F 61% 30.00 in 10.0 mi Calm Calm - N/A   Partly Cloudy
9:53 AM 75.0 °F - 55.9 °F 51% 29.99 in 10.0 mi Calm Calm - N/A   Scattered Clouds
10:53 AM 78.1 °F - 55.0 °F 45% 29.98 in 10.0 mi Calm Calm - N/A   Partly Cloudy
11:53 AM 81.0 °F 81.1 °F 57.9 °F 45% 29.97 in 10.0 mi Variable 3.5 mph - N/A   Clear
12:53 PM 82.9 °F 82.6 °F 57.9 °F 42% 29.95 in 10.0 mi WSW 9.2 mph - N/A   Partly Cloudy
1:53 PM 82.9 °F 81.9 °F 54.0 °F 37% 29.92 in 10.0 mi WNW 12.7 mph 20.7 mph N/A   Scattered Clouds
2:15 PM 66.2 °F - 60.8 °F 83% 30.13 in 1.2 mi SW 42.6 mph 59.8 mph 0.06 in Rain , Thunderstorm Light Rain
2:33 PM - - - N/A% - - North - - 0.18 in   Unknown
2:40 PM 64.4 °F - 62.6 °F 94% 30.15 in - WSW 20.7 mph 33.4 mph 0.18 in Thunderstorm Thunderstorm
2:53 PM 66.0 °F - 63.0 °F 90% 30.01 in 10.0 mi WSW 20.7 mph 26.5 mph 0.18 in Rain Light Rain
3:30 PM 64.4 °F - 64.4 °F 100% 30.14 in 10.0 mi NW 19.6 mph - 0.02 in   Overcast
3:53 PM 69.1 °F - 64.9 °F 87% 30.01 in 10.0 mi Calm Calm - 0.02 in   Mostly Cloudy
4:53 PM 70.0 °F - 62.1 °F 76% 29.96 in 10.0 mi ENE 5.8 mph - N/A   Mostly Cloudy
5:53 PM 73.4 °F - 60.8 °F 65% 30.07 in 10.0 mi ESE 11.5 mph - N/A   Partly Cloudy
6:53 PM 78.1 °F - 59.0 °F 52% 29.90 in 10.0 mi South 4.6 mph - N/A   Clear
7:53 PM 75.9 °F - 61.0 °F 60% 29.91 in 10.0 mi NNE 5.8 mph - N/A   Clear
8:53 PM 73.0 °F - 62.1 °F 68% 29.91 in 10.0 mi East 6.9 mph - N/A   Partly Cloudy
9:53 PM 72.0 °F - 62.1 °F 71% 29.91 in 10.0 mi East 11.5 mph - N/A   Partly Cloudy
10:53 PM 71.1 °F - 61.0 °F 70% 29.92 in 10.0 mi Calm Calm - N/A   Clear
11:53 PM 70.0 °F - 57.9 °F 65% 29.90 in 10.0 mi SE 5.8 mph - N/A   Partly Cloudy